TimeCDT,TemperatureF,Dew PointF,Humidity,Sea Level PressureIn,VisibilityMPH,Wind Direction,Wind SpeedMPH,Gust SpeedMPH,PrecipitationIn,Events,Conditions,WindDirDegrees,DateUTC
12:15 AM,53.6,48.2,82,30.19,10.0,Calm,Calm,-,N/A,,Overcast,0,2012-10-12 05:15:00
12:35 AM,53.6,48.2,82,30.18,10.0,Calm,Calm,-,N/A,,Overcast,0,2012-10-12 05:35:00
1:15 AM,55.4,48.2,77,30.18,10.0,Calm,Calm,-,N/A,,Mostly Cloudy,0,2012-10-12 06:15:00
1:35 AM,53.6,48.2,82,30.18,10.0,Calm,Calm,-,N/A,,Mostly Cloudy,0,2012-10-12 06:35:00
1:55 AM,53.6,48.2,82,30.17,10.0,East,3.5,-,N/A,,Partly Cloudy,100,2012-10-12 06:55:00
2:35 AM,53.6,48.2,82,30.16,10.0,Calm,Calm,-,N/A,,Partly Cloudy,0,2012-10-12 07:35:00
2:55 AM,55.4,48.2,77,30.16,10.0,Calm,Calm,-,N/A,,Clear,0,2012-10-12 07:55:00
3:35 AM,53.6,48.2,82,30.16,10.0,Calm,Calm,-,N/A,,Clear,0,2012-10-12 08:35:00
3:55 AM,53.6,48.2,82,30.16,10.0,Calm,Calm,-,N/A,,Clear,0,2012-10-12 08:55:00
4:35 AM,53.6,48.2,82,30.17,10.0,NNE,6.9,-,N/A,,Scattered Clouds,30,2012-10-12 09:35:00
4:55 AM,53.6,48.2,82,30.17,10.0,NNE,5.8,-,N/A,,Overcast,30,2012-10-12 09:55:00
5:15 AM,53.6,48.2,82,30.18,10.0,NNE,4.6,-,N/A,,Mostly Cloudy,20,2012-10-12 10:15:00
5:55 AM,55.4,48.2,77,30.20,10.0,NE,3.5,-,N/A,,Mostly Cloudy,40,2012-10-12 10:55:00
6:16 AM,55.4,48.2,77,30.20,10.0,Calm,Calm,-,N/A,,Mostly Cloudy,0,2012-10-12 11:16:00
6:35 AM,55.4,50.0,82,30.22,10.0,Calm,Calm,-,N/A,,Mostly Cloudy,0,2012-10-12 11:35:00
6:55 AM,55.4,50.0,82,30.27,10.0,NW,10.4,16.1,0.01,Thunderstorm,Thunderstorm,320,2012-10-12 11:55:00
7:35 AM,57.2,51.8,82,30.24,5.0,Calm,Calm,-,0.76,Thunderstorm,Thunderstorm,0,2012-10-12 12:35:00
7:55 AM,55.4,51.8,88,30.27,3.0,ESE,5.8,-,0.90,Thunderstorm,Thunderstorm,120,2012-10-12 12:55:00
8:35 AM,55.4,51.8,88,30.26,3.0,East,3.5,-,0.12,Thunderstorm,Mostly Cloudy,90,2012-10-12 13:35:00
9:15 AM,57.2,51.8,82,30.29,7.0,Calm,Calm,-,0.03,,Overcast,0,2012-10-12 14:15:00
9:35 AM,57.2,51.8,82,30.29,3.0,ESE,3.5,-,0.07,,Overcast,120,2012-10-12 14:35:00
9:55 AM,57.2,51.8,82,30.29,5.0,Calm,Calm,-,0.12,,Overcast,0,2012-10-12 14:55:00
10:15 AM,57.2,51.8,82,30.29,4.0,Calm,Calm,-,0.04,,Overcast,0,2012-10-12 15:15:00
10:55 AM,57.2,53.6,88,30.31,9.0,NNE,5.8,-,0.13,,Overcast,20,2012-10-12 15:55:00
12:35 PM,57.2,51.8,82,30.29,9.0,Calm,Calm,-,0.05,,Overcast,0,2012-10-12 17:35:00
1:35 PM,57.2,51.8,82,30.30,9.0,NNE,6.9,-,0.10,,Overcast,20,2012-10-12 18:35:00
2:35 PM,57.2,51.8,82,30.28,10.0,Calm,Calm,-,0.18,,Overcast,0,2012-10-12 19:35:00
3:15 PM,57.2,51.8,82,30.25,10.0,ESE,4.6,-,N/A,,Overcast,120,2012-10-12 20:15:00
3:36 PM,57.2,51.8,82,30.22,10.0,SE,5.8,-,N/A,,Overcast,130,2012-10-12 20:36:00
4:15 PM,57.2,51.8,82,30.18,10.0,ESE,9.2,-,N/A,,Overcast,110,2012-10-12 21:15:00
5:15 PM,57.2,53.6,88,30.21,10.0,East,8.1,-,N/A,,Overcast,90,2012-10-12 22:15:00
6:15 PM,57.2,51.8,82,30.22,10.0,East,4.6,-,N/A,,Overcast,90,2012-10-12 23:15:00
6:35 PM,57.2,51.8,82,30.22,8.0,East,6.9,-,N/A,,Overcast,90,2012-10-12 23:35:00
7:15 PM,57.2,51.8,82,30.22,3.0,East,6.9,-,N/A,,Overcast,100,2012-10-13 00:15:00
7:35 PM,55.4,51.8,88,30.23,3.0,ESE,4.6,-,N/A,,Overcast,110,2012-10-13 00:35:00
7:55 PM,55.4,51.8,88,30.23,2.0,ESE,5.8,-,N/A,,Overcast,110,2012-10-13 00:55:00
8:15 PM,55.4,51.8,88,30.23,2.0,East,4.6,-,N/A,,Overcast,90,2012-10-13 01:15:00
8:35 PM,55.4,51.8,88,30.23,1.8,East,4.6,-,N/A,,Overcast,100,2012-10-13 01:35:00
9:35 PM,55.4,51.8,88,30.22,1.0,ESE,8.1,-,N/A,,Overcast,110,2012-10-13 02:35:00
10:15 PM,55.4,51.8,88,30.21,1.8,ESE,5.8,-,N/A,,Overcast,110,2012-10-13 03:15:00
11:15 PM,55.4,51.8,88,30.22,1.2,East,5.8,-,N/A,,Overcast,100,2012-10-13 04:15:00
11:55 PM,55.4,51.8,88,30.22,1.2,ESE,4.6,-,N/A,,Overcast,110,2012-10-13 04:55:00